Location: Archamps
(46.1365°N, 6.1329°E)
Time: 18:14:00
(UTC+00:00)

Cosmos 2279 Rocket - Pass Details

Date: 28 January 2023
Orbit: 964 x 978 km, 82.9° (Epoch: 30 March)

Event Time Altitude Azimuth Distance (km) Brightness Sun altitude
Rises 17:21:57 0° 188° (S) 3,637 7.4 -8.5°
Reaches altitude 10° 17:24:26 10° 189° (S) 2,695 6.7 -8.9°
Maximum altitude 17:30:37 85° 279° (W) 976 4.1 -10.0°
Drops below altitude 10° 17:36:52 10° 8° (N) 2,720 6.1 -11.0°
Sets 17:39:23 0° 9° (N) 3,673 6.8 -11.4°
